{"data":{"norad_id":54743,"intl_designator":"2022-170C","name":"METEOSAT-12 (MTG-I1)","alt_names":[],"object_type":"PAYLOAD","status":"ACTIVE","operator":null,"country":"EUME","launch_date":"2022-12-13","launch_site_code":"FRGUI","launch_vehicle":null,"mission":null,"orbit_class":"UNKNOWN","rcs_meters":null,"size_class":null,"mass_kg":null,"dimensions":null,"purposes":["comms","earth_obs"],"wikipedia_slug":null,"has_3d_model":false,"image_url":null,"decayed_at":null,"tle_current":{"epoch":"2026-05-25T03:44:32.269056Z","epoch_age_seconds":55497,"freshness":"FRESH","line1":"1 54743U 22170C   26145.15592904 -.00000009  00000+0  00000+0 0  9996","line2":"2 54743   0.7582  26.9701 0000778   1.8142 269.8051  1.00274682 12745","mean_motion":1.00274682,"eccentricity":7.78e-5,"inclination_deg":0.7582,"raan_deg":26.9701,"arg_perigee_deg":1.8142,"mean_anomaly_deg":269.8051,"bstar":0,"rev_number":1274,"period_min":1436.055414267,"perigee_km":35782.502493515,"apogee_km":35789.063199443,"semimajor_km":42163.919846479,"source":"CELESTRAK","updated_at":"2026-05-25T13:38:14.137280Z"}}}